User: anonymous   Login
Location: Boussy-Saint-Antoine
(48.6830°N, 2.5330°E)
Time: 17:36:37
(UTC+02:00)
Language:

LilacSat-2 - Orbit

View from above orbital plane
View from above orbital plane
View from above satellite
View from above satellite

Ground track
Ground track

The orbit data is extracted from the following two-line orbital elements,

1 40908U 15049K   19233.84837102 -.00000004 +00000-0 +34093-5 0  9990
2 40908 097.4808 233.3171 0015517 346.9899 132.2017 15.13828484216511
Epoch (UTC): 21 August 2019 20:21:39
Eccentricity: 0.0015517
inclination: 97.4808°
perigee height: 514 km
apogee height: 535 km
right ascension of ascending node: 233.3171°
argument of perigee: 346.9899°
revolutions per day: 15.13828484
mean anomaly at epoch: 132.2017°
orbit number at epoch: 21651

The dashed part of the orbit path shows where the satellite is in the earth's shadow,  

DLR